Weather History for Eagle, AK

Change the Weather History Date:

Saturday, January 19, 2013

  Actual Average (PABN) Record (PABN)
Temperature  
Mean Temperature -24 °F -  
Max Temperature -4 °F 2 °F 33 °F (2009)
Min Temperature -44 °F -1 °F -32 °F (2005)
Degree Days  
Heating Degree Days 89    
Moisture  
Dew Point -23 °F    
Average Humidity 60    
Maximum Humidity 67    
Minimum Humidity 54    
Precipitation  
Precipitation 0.00 in - - ()
Sea Level Pressure  
Sea Level Pressure 30.76 in    
Wind  
Wind Speed 2 mph (ESE)    
Max Wind Speed 10 mph    
Max Gust Speed 16 mph    
Visibility 10 miles    
Events      
Averages and records for this station are not official NWS values.
T = Trace of Precipitation, MM = Missing Value Source: NWS Daily Summary

Daily Weather History Graph

Daily Weather History Graph

Search for Another Location

Airport:

Trip Planner

Search our weather history database for the weather conditions in past years. The results will help you decide how hot, cold, wet, or windy it might be!

Date:

Astronomy

Jan. 19, 2013 Rise Set
Actual Time 9:47 AM AKST 3:24 PM AKST
Civil Twilight 8:40 AM AKST 4:31 PM AKST
Nautical Twilight 7:35 AM AKST 5:35 PM AKST
Astronomical Twilight 6:37 AM AKST 6:34 PM AKST
Moon 10:25 AM AKST (1/19) 2:53 AM AKST (1/19)
Length of Visible Light 7h 50m
Length of Day
5h 36m
First Quarter, 58% of the Moon is Illuminated
Jan 19
First Quarter
Jan 26
Full
Feb 3
Last Quarter
Feb 9
New
Feb 17
First Quarter

Hourly Weather History & Observations

Time (AKST) Temp. Windchill Dew Point Humidity Pressure Visibility Wind Dir Wind Speed Gust Speed Precip Events Conditions
12:53 AM -43.1 °F - - N/A% 30.84 in 10.0 mi Calm Calm - N/A   Clear
1:53 AM -44.0 °F - - N/A% 30.85 in 9.0 mi Calm Calm - N/A   Clear
3:53 AM -44.0 °F - - N/A% 30.87 in 9.0 mi Calm Calm - N/A   Clear
4:53 AM -44.0 °F - - N/A% 30.87 in 10.0 mi Calm Calm - N/A   Clear
5:53 AM -44.0 °F - - N/A% 30.86 in 10.0 mi Calm Calm - N/A   Clear
6:53 AM -44.0 °F - - N/A% 30.87 in 9.0 mi Calm Calm - N/A   Clear
7:53 AM -43.1 °F - - N/A% 30.86 in 10.0 mi Calm Calm - N/A   Clear
8:53 AM -42.0 °F - - N/A% 30.87 in 10.0 mi Calm Calm - N/A   Clear
9:53 AM -41.1 °F - - N/A% 30.86 in 10.0 mi Calm Calm - N/A   Clear
10:53 AM -38.0 °F -51.3 °F - N/A% 30.85 in 10.0 mi South 3.5 mph - N/A   Clear
11:53 AM -31.0 °F - - N/A% 30.84 in 10.0 mi Calm Calm - N/A   Clear
12:53 PM -27.9 °F - -36.0 °F 65% 30.82 in 10.0 mi Calm Calm - N/A   Clear
1:53 PM -25.1 °F - -33.0 °F 66% 30.79 in 10.0 mi Calm Calm - N/A   Clear
2:53 PM -22.0 °F - -29.9 °F 67% 30.76 in 10.0 mi Calm Calm - N/A   Partly Cloudy
3:53 PM -17.0 °F -31.7 °F -26.0 °F 64% 30.73 in 10.0 mi Variable 5.8 mph - N/A   Partly Cloudy
4:53 PM -9.9 °F -24.9 °F -20.9 °F 59% 30.71 in 10.0 mi ESE 6.9 mph - N/A   Clear
5:53 PM -9.9 °F -26.3 °F -20.9 °F 59% 30.68 in 10.0 mi ESE 8.1 mph - N/A   Clear
6:53 PM -9.9 °F -28.6 °F -20.9 °F 59% 30.66 in 10.0 mi ESE 10.4 mph 16.1 mph N/A   Partly Cloudy
7:53 PM -9.0 °F -22.3 °F -20.9 °F 56% 30.64 in 10.0 mi East 5.8 mph - N/A   Clear
8:53 PM -7.1 °F -19.9 °F -18.9 °F 56% 30.62 in 10.0 mi ESE 5.8 mph - N/A   Overcast
9:53 PM -5.1 °F -17.6 °F -17.0 °F 57% 30.59 in 10.0 mi ESE 5.8 mph - N/A   Overcast
10:53 PM -4.0 °F -16.3 °F -16.1 °F 56% 30.58 in 10.0 mi East 5.8 mph - N/A   Overcast
11:53 PM -4.0 °F -14.6 °F -17.0 °F 54% 30.56 in 10.0 mi East 4.6 mph - N/A   Mostly Cloudy